BBC372 VNKT-VGHS

Flight info

Callsign BBC372
Flight time N/A
Altitude 37000
Route IGRIS1E AHALE R344 RAJ G463 OLPAS
Aircraft B77W/H-SDE1E2E3FGHIJ2J3J4J5M1RWXY/LB1D1

Departure

Time N/A
Airport Tribhuvan International Airport (VNKT)

Arrival

Time 2026-04-27 15:13
Airport Hazrat Shahjalal International Airport (VGHS)
Time Latitude Longitude Altitude Speed Heading
2026-04-27 14:50 24.65590 88.41458 36693 ft 521 kts 145°
2026-04-27 14:51 24.60047 88.46585 36701 ft 519 kts 145°
2026-04-27 14:51 24.55411 88.50871 36699 ft 520 kts 146°
2026-04-27 14:52 24.48962 88.56829 36709 ft 521 kts 145°
2026-04-27 14:52 24.44098 88.62781 36717 ft 534 kts 127°
2026-04-27 14:53 24.42178 88.66327 36163 ft 547 kts 119°
2026-04-27 14:53 24.40718 88.70213 35440 ft 552 kts 112°
2026-04-27 14:53 24.39429 88.74190 34598 ft 553 kts 111°
2026-04-27 14:53 24.38170 88.78184 33732 ft 555 kts 110°
2026-04-27 14:54 24.36901 88.82183 32682 ft 556 kts 110°
2026-04-27 14:54 24.35605 88.86182 31711 ft 554 kts 110°
2026-04-27 14:54 24.34307 88.90105 30722 ft 553 kts 110°
2026-04-27 14:54 24.32979 88.94060 30055 ft 546 kts 110°
2026-04-27 14:55 24.31666 88.97940 29334 ft 539 kts 110°
2026-04-27 14:55 24.30364 89.01779 28624 ft 531 kts 109°
2026-04-27 14:55 24.29085 89.05549 27978 ft 524 kts 109°
2026-04-27 14:55 24.27840 89.09223 27443 ft 512 kts 109°
2026-04-27 14:56 24.26619 89.12825 26642 ft 495 kts 109°
2026-04-27 14:56 24.25429 89.16335 25564 ft 487 kts 109°
2026-04-27 14:56 24.24258 89.19793 24772 ft 475 kts 109°
2026-04-27 14:56 24.23118 89.23142 24494 ft 464 kts 109°
2026-04-27 14:57 24.22006 89.26406 23927 ft 458 kts 109°
2026-04-27 14:57 24.20897 89.29657 22999 ft 454 kts 109°
2026-04-27 14:57 24.19795 89.32894 21831 ft 453 kts 109°
2026-04-27 14:57 24.18697 89.36119 20726 ft 450 kts 109°
2026-04-27 14:58 24.17601 89.39334 19631 ft 448 kts 109°
2026-04-27 14:58 24.16511 89.42532 18567 ft 446 kts 110°
2026-04-27 14:58 24.15442 89.45664 17522 ft 442 kts 110°
2026-04-27 14:58 24.14369 89.48805 16481 ft 437 kts 110°
2026-04-27 14:59 24.13307 89.51909 15499 ft 432 kts 110°
2026-04-27 14:59 24.12282 89.54992 14522 ft 427 kts 106°
2026-04-27 14:59 24.11836 89.58173 13513 ft 421 kts 85°
2026-04-27 14:59 24.12142 89.61294 12482 ft 415 kts 80°
2026-04-27 15:00 24.12454 89.64411 11746 ft 408 kts 82°
2026-04-27 15:00 24.12632 89.66493 11554 ft 403 kts 82°
2026-04-27 15:00 24.12861 89.69459 11360 ft 374 kts 82°
2026-04-27 15:00 24.13059 89.72149 11192 ft 344 kts 82°
2026-04-27 15:01 24.13248 89.74695 11091 ft 330 kts 82°
2026-04-27 15:01 24.13435 89.77173 10956 ft 321 kts 82°
2026-04-27 15:01 24.13616 89.79594 10808 ft 316 kts 82°
2026-04-27 15:01 24.13793 89.81967 10487 ft 317 kts 82°
2026-04-27 15:02 24.13974 89.84391 10083 ft 321 kts 82°
2026-04-27 15:02 24.14155 89.86842 9673 ft 324 kts 82°
2026-04-27 15:02 24.14336 89.89319 9227 ft 327 kts 82°
2026-04-27 15:02 24.14517 89.91802 8897 ft 326 kts 83°
2026-04-27 15:03 24.14696 89.94272 8623 ft 323 kts 83°
2026-04-27 15:03 24.14872 89.96709 8351 ft 319 kts 84°
2026-04-27 15:03 24.15045 89.99123 8076 ft 316 kts 84°
2026-04-27 15:03 24.15215 90.01481 7817 ft 313 kts 84°
2026-04-27 15:04 24.15387 90.03860 7548 ft 310 kts 85°
2026-04-27 15:04 24.15557 90.06208 7277 ft 308 kts 85°
2026-04-27 15:04 24.15724 90.08539 6957 ft 301 kts 85°
2026-04-27 15:04 24.15885 90.10786 6460 ft 298 kts 86°
2026-04-27 15:05 24.15865 90.13003 6213 ft 284 kts 106°
2026-04-27 15:05 24.15040 90.14879 6081 ft 267 kts 135°
2026-04-27 15:05 24.13745 90.16210 5955 ft 245 kts 145°
2026-04-27 15:05 24.12456 90.17304 5823 ft 224 kts 148°
2026-04-27 15:06 24.11248 90.18281 5675 ft 211 kts 149°
2026-04-27 15:06 24.10081 90.19211 5525 ft 210 kts 149°
2026-04-27 15:06 24.08874 90.20171 5268 ft 216 kts 149°
2026-04-27 15:06 24.07659 90.21141 5021 ft 214 kts 149°
2026-04-27 15:07 24.06464 90.22098 4752 ft 212 kts 150°
2026-04-27 15:07 24.05284 90.23044 4500 ft 208 kts 150°
2026-04-27 15:07 24.04145 90.23955 4279 ft 201 kts 151°
2026-04-27 15:07 24.03038 90.24842 4077 ft 193 kts 151°
2026-04-27 15:08 24.01958 90.25704 3817 ft 192 kts 151°
2026-04-27 15:08 24.00871 90.26570 3589 ft 195 kts 151°
2026-04-27 15:08 23.99770 90.27449 3339 ft 196 kts 151°
2026-04-27 15:08 23.98668 90.28331 3084 ft 195 kts 151°
2026-04-27 15:09 23.97585 90.29199 2832 ft 190 kts 151°
2026-04-27 15:09 23.96548 90.30028 2584 ft 184 kts 150°
2026-04-27 15:09 23.95533 90.30838 2346 ft 175 kts 149°
2026-04-27 15:09 23.94579 90.31600 2158 ft 167 kts 149°
2026-04-27 15:10 23.93647 90.32343 1940 ft 166 kts 148°
2026-04-27 15:10 23.92698 90.33100 1728 ft 170 kts 147°
2026-04-27 15:10 23.91758 90.33852 1496 ft 163 kts 147°
2026-04-27 15:10 23.90858 90.34571 1288 ft 158 kts 146°
2026-04-27 15:11 23.89968 90.35281 1103 ft 159 kts 146°
2026-04-27 15:11 23.89084 90.35985 907 ft 155 kts 145°
2026-04-27 15:11 23.88218 90.36677 711 ft 152 kts 144°
2026-04-27 15:11 23.87356 90.37365 529 ft 159 kts 143°
2026-04-27 15:12 23.86440 90.38103 294 ft 163 kts 142°
2026-04-27 15:12 23.85566 90.38805 99 ft 155 kts 143°
2026-04-27 15:12 23.84712 90.39493 42 ft 150 kts 144°
2026-04-27 15:12 23.83973 90.40067 43 ft 78 kts 143°
2026-04-27 15:13 23.83774 90.40288 43 ft 15 kts 119°
2026-04-27 15:13 23.83728 90.40390 42 ft 10 kts 113°
2026-04-27 15:13 23.83707 90.40461 41 ft 10 kts 102°
2026-04-27 15:13 23.83701 90.40526 41 ft 5 kts 91°
2026-04-27 15:14 23.83703 90.40569 41 ft 6 kts 82°
2026-04-27 15:14 23.83716 90.40622 41 ft 9 kts 69°
2026-04-27 15:14 23.83750 90.40686 41 ft 10 kts 54°
2026-04-27 15:14 23.83792 90.40749 41 ft 10 kts 53°
2026-04-27 15:15 23.83834 90.40799 41 ft 9 kts 30°
2026-04-27 15:15 23.83896 90.40793 41 ft 9 kts 333°
2026-04-27 15:15 23.83953 90.40749 41 ft 11 kts 322°
2026-04-27 15:15 23.84019 90.40696 41 ft 13 kts 324°
2026-04-27 15:16 23.84096 90.40636 41 ft 14 kts 324°
2026-04-27 15:16 23.84181 90.40569 41 ft 16 kts 324°
2026-04-27 15:16 23.84274 90.40495 41 ft 17 kts 323°
2026-04-27 15:16 23.84372 90.40417 41 ft 18 kts 324°
2026-04-27 15:17 23.84472 90.40338 41 ft 18 kts 324°
2026-04-27 15:17 23.84530 90.40291 41 ft 0 kts 324°
2026-04-27 15:18 23.84534 90.40288 41 ft 2 kts 324°
2026-04-27 15:18 23.84560 90.40267 41 ft 7 kts 324°
2026-04-27 15:18 23.84614 90.40241 41 ft 10 kts
2026-04-27 15:19 23.84668 90.40281 41 ft 11 kts 48°
2026-04-27 15:19 23.84682 90.40336 41 ft 8 kts 105°
2026-04-27 15:19 23.84653 90.40378 41 ft 5 kts 137°
2026-04-27 15:19 23.84650 90.40406 41 ft 5 kts 78°
2026-04-27 15:20 23.84657 90.40428 41 ft 3 kts 72°
2026-04-27 15:20 23.84662 90.40440 41 ft 3 kts 63°
2026-04-27 15:20 23.84670 90.40453 40 ft 1 kts 55°
2026-04-27 15:20 23.84676 90.40462 40 ft 2 kts 55°
2026-04-27 15:21 23.84676 90.40463 40 ft 0 kts 55°